Notices

What's New in latest Release from April 7th, 2021:

- Updated Glossary, including Speed of Maximum Gust, and Total Hourly Precipitation

- Updated national and regional climate services offices contacts and prices information

- Addition of station inventory lists for 1981-2010, 1971-2000, and 1961-1990 Normals.

If you haven't already, please take our survey and provide feedback about our website: https://eccc.sondage-survey.ca/f/LanguageSelection.aspx?s=442ca660-fcf1-47c0-95a9-59707d6fd709

Hourly Data Report for August 22, 2016

TORONTO CITY
ONTARIO

43°40'00.000" N
79°24'00.000" W
112.50 m
6158355
71508
XTO

Download Data

Hourly Data (August 2016)
Hourly Data Report for August 22, 2016
TIME
LST
Temp Definition
°C
Dew Point Definition
°C
Rel Hum Definition
%
Precip. Amount Definition
mm

Wind Dir Definition
10's deg

Wind Spd Definition
km/h
Visibility Definition
km
Stn Press Definition
kPa
Hmdx Definition


Wind Chill Definition


Weather Definition


00:00 17.9 10.8 63 0.0 LegendMM LegendMM   100.07     LegendNANA
01:00 17.4 10.7 64 0.0 LegendMM LegendMM   100.13     LegendNANA
02:00 16.8 10.6 67 0.0 LegendMM LegendMM   100.20     LegendNANA
03:00 16.1 10.6 70 0.0 LegendMM LegendMM   100.29     LegendNANA
04:00 15.8 10.3 70 0.0 LegendMM LegendMM   100.34     LegendNANA
05:00 14.1 10.4 78 0.0 LegendMM LegendMM   100.41     LegendNANA
06:00 14.2 10.6 79 0.0 LegendMM LegendMM   100.53     LegendNANA
07:00 15.6 10.3 71 0.0 LegendMM LegendMM   100.56     LegendNANA
08:00 17.4 8.8 57 0.0 LegendMM LegendMM   100.64     LegendNANA
09:00 18.0 8.1 53 0.0 LegendMM LegendMM   100.69     LegendNANA
10:00 19.6 8.8 50 0.0 LegendMM LegendMM   100.72     LegendNANA
11:00 20.9 9.4 48 0.0 LegendMM LegendMM   100.70     LegendNANA
12:00 20.0 10.7 55 0.0 LegendMM LegendMM   100.71     LegendNANA
13:00 21.4 11.3 53 0.0 LegendMM LegendMM   100.71     LegendNANA
14:00 23.7 6.1 32 0.0 LegendMM LegendMM   100.71     LegendNANA
15:00 23.3 6.7 34 0.0 LegendMM LegendMM   100.68     LegendNANA
16:00 23.2 5.5 32 0.0 LegendMM LegendMM   100.68     LegendNANA
17:00 23.2 5.9 33 0.0 LegendMM LegendMM   100.68     LegendNANA
18:00 23.0 5.4 32 0.0 LegendMM LegendMM   100.70     LegendNANA
19:00 21.6 7.2 39 0.0 LegendMM LegendMM   100.74     LegendNANA
20:00 20.4 8.4 46 0.0 LegendMM LegendMM   100.81     LegendNANA
21:00 19.6 7.9 47 0.0 LegendMM LegendMM   100.87     LegendNANA
22:00 18.0 8.6 54 0.0 LegendMM LegendMM   100.88     LegendNANA
23:00 17.6 9.7 60 0.0 LegendMM LegendMM   100.88     LegendNANA

Notes on Data Quality.

Legend

  • E = Estimated
  • M = Missing
  • NA = Not Available*
  • [empty] = Indicates an unobserved value
Date modified: